TimeCST,TemperatureF,Dew PointF,Humidity,Sea Level PressureIn,VisibilityMPH,Wind Direction,Wind SpeedMPH,Gust SpeedMPH,PrecipitationIn,Events,Conditions,WindDirDegrees,DateUTC
12:55 AM,21.0,14.0,74,29.98,10.0,WNW,15.0,25.3,N/A,,Overcast,300,2012-12-10 06:55:00
1:55 AM,21.0,14.0,74,29.98,10.0,WNW,10.4,20.7,N/A,,Overcast,290,2012-12-10 07:55:00
2:55 AM,19.9,12.9,74,29.98,10.0,WNW,15.0,20.7,N/A,,Overcast,290,2012-12-10 08:55:00
3:55 AM,19.0,12.9,77,29.97,10.0,WNW,16.1,21.9,N/A,,Overcast,290,2012-12-10 09:55:00
4:55 AM,19.0,12.9,77,29.98,10.0,WNW,12.7,-,N/A,,Overcast,300,2012-12-10 10:55:00
5:55 AM,19.0,12.9,77,29.99,10.0,WNW,12.7,-,N/A,,Overcast,300,2012-12-10 11:55:00
6:55 AM,19.9,12.9,74,30.01,10.0,WNW,11.5,-,N/A,,Overcast,300,2012-12-10 12:55:00
7:35 AM,19.4,12.2,74,29.99,10.0,West,11.5,-,N/A,,Overcast,280,2012-12-10 13:35:00
7:55 AM,19.0,12.9,77,30.04,10.0,West,12.7,-,N/A,,Overcast,280,2012-12-10 13:55:00
8:10 AM,19.4,12.2,74,29.99,10.0,WNW,13.8,18.4,N/A,,Overcast,290,2012-12-10 14:10:00
8:55 AM,19.9,12.9,74,30.05,10.0,WNW,11.5,-,N/A,,Overcast,290,2012-12-10 14:55:00
9:44 AM,21.2,14.0,74,30.00,10.0,West,15.0,19.6,N/A,,Overcast,280,2012-12-10 15:44:00
9:55 AM,21.9,14.0,72,30.05,10.0,WNW,11.5,21.9,N/A,,Overcast,290,2012-12-10 15:55:00
10:55 AM,25.0,16.0,69,30.04,10.0,WNW,11.5,-,N/A,,Overcast,290,2012-12-10 16:55:00
11:55 AM,26.1,17.1,69,30.02,10.0,WNW,16.1,-,N/A,,Overcast,290,2012-12-10 17:55:00
12:18 PM,26.6,17.6,69,29.97,10.0,West,10.4,-,N/A,,Overcast,270,2012-12-10 18:18:00
12:45 PM,28.4,17.6,64,29.97,10.0,West,10.4,18.4,N/A,,Scattered Clouds,280,2012-12-10 18:45:00
12:55 PM,30.0,18.0,61,30.01,10.0,West,8.1,-,N/A,,Clear,280,2012-12-10 18:55:00
1:55 PM,30.9,18.0,59,30.00,10.0,NW,13.8,-,N/A,,Clear,320,2012-12-10 19:55:00
2:55 PM,30.9,17.1,57,30.00,10.0,WNW,9.2,-,N/A,,Clear,290,2012-12-10 20:55:00
3:55 PM,28.9,17.1,61,30.01,10.0,West,11.5,-,N/A,,Clear,280,2012-12-10 21:55:00
4:55 PM,26.1,16.0,66,30.03,10.0,West,6.9,-,N/A,,Clear,280,2012-12-10 22:55:00
5:55 PM,24.1,15.1,69,30.04,10.0,WSW,3.5,-,N/A,,Clear,240,2012-12-10 23:55:00
6:55 PM,21.0,14.0,74,30.04,10.0,West,4.6,-,N/A,,Clear,260,2012-12-11 00:55:00
7:55 PM,18.0,12.9,81,30.06,10.0,West,4.6,-,N/A,,Clear,260,2012-12-11 01:55:00
8:55 PM,19.9,14.0,78,30.06,10.0,SW,3.5,-,N/A,,Clear,230,2012-12-11 02:55:00
9:55 PM,19.9,12.9,74,30.07,10.0,WSW,3.5,-,N/A,,Clear,240,2012-12-11 03:55:00
10:55 PM,18.0,12.9,81,30.07,10.0,WSW,3.5,-,N/A,,Clear,240,2012-12-11 04:55:00
11:55 PM,18.0,12.9,81,30.07,10.0,SW,5.8,-,N/A,,Clear,230,2012-12-11 05:55:00